PBO Station Position Time Series. Reference Frame : NAM14
Format Version,1.1.0
4-character ID,WIFR
Station name,Wife_Reset
Begin Date, 2008-10-30
End Date, 2018-07-17
Release Date, 2019-08-30
Reference position, 44.0596788522 North Latitude, -121.8175792241 East Longitude, 1951.54022 meters elevation,
Date, North (mm), East (mm), Vertical (mm), North Std. Deviation (mm), East Std. Deviation (mm),              Vertical Std. Deviation (mm), Quality,
2008-10-30,0.00, 0.00, 0.00, 2.34, 1.62, 7.53, repro,
2008-10-31,0.93, 0.47, -9.59, 2.47, 1.78, 8.35, repro,
2008-11-01,2.41, -0.68, -3.38, 2.30, 1.63, 7.58, repro,
2008-11-02,1.81, 1.35, -18.76, 2.29, 1.65, 7.70, repro,
2008-11-03,-2.41, -1.99, -1.42, 2.50, 1.78, 8.24, repro,
2008-11-04,-3.62, -0.63, -1.95, 2.39, 1.69, 7.95, repro,
2008-11-05,-1.72, -1.32, 1.30, 2.53, 1.79, 8.56, repro,
2008-11-06,5.58, 3.52, -13.35, 2.61, 1.83, 9.02, repro,
2008-11-07,1.76, 1.07, -22.66, 2.28, 1.67, 7.75, repro,
2008-11-08,-0.37, 1.30, -5.81, 2.26, 1.61, 7.48, repro,
2008-11-09,-3.13, -1.92, -13.35, 2.36, 1.73, 8.17, repro,
2008-11-10,-2.76, 8.89, 33.46, 2.37, 1.74, 8.08, repro,
2008-11-11,-0.51, -4.73, 33.15, 4.13, 2.90, 14.06, repro,
2008-11-12,0.33, 2.28, -22.29, 2.64, 1.85, 8.90, repro,
2008-11-13,2.78, 1.04, -7.62, 2.33, 1.73, 8.12, repro,
2008-11-14,2.35, 2.47, -11.21, 2.36, 1.67, 7.98, repro,
2008-11-15,1.65, 2.34, -22.17, 2.27, 1.63, 7.67, repro,
2008-11-16,0.65, 0.80, -15.67, 2.34, 1.66, 7.95, repro,
2008-11-17,0.08, 0.81, -17.80, 2.42, 1.80, 8.27, repro,
2008-11-18,1.22, 0.28, -17.68, 2.42, 1.75, 8.00, repro,
2008-11-19,-3.15, 2.55, -9.16, 3.44, 2.28, 10.86, repro,
2008-11-20,0.13, 2.16, -10.02, 2.31, 1.71, 7.93, repro,
2008-11-21,-0.22, 0.53, -14.10, 2.27, 1.66, 7.69, repro,
2008-11-22,1.72, -0.39, -2.83, 2.32, 1.76, 7.98, repro,
2008-11-23,-4.99, -3.85, -7.38, 2.36, 1.65, 7.82, repro,
2008-11-24,-6.62, -5.16, -21.75, 2.48, 1.76, 8.49, repro,
2008-11-25,-0.77, 1.77, -17.77, 2.36, 1.71, 7.77, repro,
2008-11-26,0.95, 3.59, -19.20, 2.34, 1.65, 7.67, repro,
2008-11-27,-0.33, 1.00, -10.22, 2.24, 1.62, 7.54, repro,
2008-11-28,-0.19, -0.51, -13.92, 2.34, 1.69, 7.87, repro,
2008-11-29,-3.20, 1.99, -18.38, 2.37, 1.73, 8.07, repro,
2008-11-30,0.73, 2.58, -9.70, 2.27, 1.65, 7.58, repro,
2008-12-01,-0.37, 2.60, -8.13, 2.29, 1.67, 7.65, repro,
2008-12-02,1.31, -0.00, -4.97, 2.47, 1.70, 8.27, repro,
2008-12-03,-6.56, -9.52, -32.78, 2.55, 1.76, 8.65, repro,
2008-12-04,-8.22, -4.22, -8.87, 2.28, 1.62, 7.67, repro,
2008-12-05,-1.72, -0.91, -7.71, 2.29, 1.68, 7.76, repro,
2008-12-06,2.38, 1.89, -14.66, 2.26, 1.64, 7.60, repro,
2008-12-07,0.53, 1.71, -14.21, 2.34, 1.74, 7.93, repro,
2008-12-08,-1.30, -0.53, -4.31, 2.45, 1.75, 8.30, repro,
2008-12-09,0.55, -3.66, -19.20, 2.30, 1.60, 7.66, repro,
2008-12-10,-2.30, -5.04, -17.40, 2.28, 1.63, 7.63, repro,
2008-12-11,1.62, 1.51, -17.07, 2.37, 1.67, 7.83, repro,
2008-12-12,0.89, 2.27, -1.75, 2.47, 1.80, 8.11, repro,
2008-12-13,2.01, 0.91, -9.08, 2.44, 1.82, 8.48, repro,
2008-12-14,-1.24, -0.19, -6.62, 2.28, 1.59, 7.50, repro,
2008-12-15,-0.12, 1.05, -3.11, 2.39, 1.69, 7.86, repro,
2008-12-16,4.50, 0.80, -11.15, 2.43, 1.71, 8.04, repro,
2008-12-17,-3.97, -3.34, -13.21, 2.43, 1.76, 8.23, repro,
2008-12-18,-2.38, -3.07, -4.05, 2.33, 1.60, 7.46, repro,
2008-12-19,-3.44, -1.46, -8.01, 2.66, 1.88, 8.78, repro,
2008-12-20,-3.38, -0.04, -11.01, 2.40, 1.66, 7.75, repro,
2008-12-21,-1.41, -0.28, -17.38, 2.32, 1.64, 7.79, repro,
2008-12-22,4.41, -0.34, -16.35, 2.37, 1.68, 8.00, repro,
2008-12-23,3.87, -1.26, -17.53, 2.52, 1.77, 8.51, repro,
2008-12-24,1.60, -4.08, -3.44, 2.56, 1.83, 8.52, repro,
2008-12-25,1.06, -2.51, 5.92, 2.53, 1.81, 8.27, repro,
2008-12-26,-0.79, -5.91, -3.42, 2.47, 1.75, 8.27, repro,
2008-12-27,2.66, -2.05, -7.71, 2.59, 1.86, 8.81, repro,
2008-12-28,0.33, -5.46, -18.32, 2.39, 1.71, 8.09, repro,
2008-12-29,0.86, -4.89, -24.92, 2.61, 1.77, 8.39, repro,
2008-12-30,0.76, -5.15, -11.40, 2.61, 1.85, 8.61, repro,
2008-12-31,0.95, -6.86, -11.44, 2.69, 1.98, 9.58, repro,
2009-01-01,0.92, -10.21, -9.60, 2.43, 1.74, 8.36, repro,
2009-01-02,0.27, -12.45, -23.64, 2.49, 1.76, 8.27, repro,
2009-01-03,3.93, -12.45, -27.49, 2.45, 1.72, 8.13, repro,
2009-01-04,1.11, -12.82, -23.23, 2.54, 1.81, 8.44, repro,
2009-01-05,2.99, -13.35, -12.14, 2.57, 1.75, 8.33, repro,
2009-01-06,13.49, -14.99, -30.76, 2.46, 1.73, 8.32, repro,
2009-01-07,14.43, -26.43, -32.36, 2.39, 1.73, 8.23, repro,
2009-01-08,6.33, -30.53, -57.23, 2.97, 1.86, 9.62, repro,
2009-01-09,1.03, -22.57, -44.91, 2.50, 1.71, 8.13, repro,
2009-01-10,8.33, -18.32, -44.65, 2.34, 1.65, 7.89, repro,
2009-01-11,15.08, -13.10, -4.48, 2.51, 1.70, 8.02, repro,
2009-01-12,7.69, -2.78, -32.11, 2.24, 1.66, 7.59, repro,
2009-01-13,5.88, -2.70, -21.25, 2.52, 1.78, 8.52, repro,
2009-01-14,4.80, -2.76, -26.39, 2.34, 1.69, 7.77, repro,
2009-01-15,1.94, -1.06, -21.60, 2.35, 1.71, 7.95, repro,
2009-01-16,1.77, 0.02, -28.61, 2.35, 1.69, 7.77, repro,
2009-01-17,-0.02, 0.45, -13.93, 2.27, 1.66, 7.71, repro,
2009-01-18,1.11, 2.14, -25.53, 2.32, 1.74, 7.86, repro,
2009-01-19,0.81, 2.61, -23.26, 2.31, 1.63, 7.64, repro,
2009-01-20,-2.16, 3.84, -11.79, 2.39, 1.73, 7.98, repro,
2009-01-21,0.30, 3.62, -22.29, 2.31, 1.72, 7.92, repro,
2009-01-22,-0.89, 2.82, -11.26, 2.33, 1.72, 7.91, repro,
2009-01-23,0.01, 2.02, -18.44, 2.33, 1.73, 7.98, repro,
2009-01-24,-0.58, 2.67, -35.16, 2.51, 1.81, 8.47, repro,
2009-01-25,-1.54, 2.38, -16.72, 2.34, 1.70, 7.82, repro,
2009-01-26,1.65, 2.31, -12.23, 2.34, 1.70, 7.83, repro,
2009-01-27,0.87, 1.58, -16.14, 2.35, 1.74, 7.88, repro,
2009-01-28,2.41, 0.33, -29.92, 2.37, 1.72, 7.87, repro,
2009-01-29,-0.95, -0.45, -31.84, 2.49, 1.85, 8.47, repro,
2009-01-30,1.84, 0.33, -16.55, 2.28, 1.68, 7.64, repro,
2009-01-31,4.10, -0.96, -15.35, 2.29, 1.70, 7.78, repro,
2009-02-01,2.42, -0.51, -26.98, 2.28, 1.69, 7.71, repro,
2009-02-02,0.87, -1.87, -17.48, 2.23, 1.61, 7.45, repro,
2009-02-03,2.36, -0.12, -23.67, 2.41, 1.75, 8.14, repro,
2009-02-04,1.10, 1.18, -18.10, 2.24, 1.68, 7.63, repro,
2009-02-05,1.07, 0.90, -14.21, 2.43, 1.74, 8.03, repro,
2009-02-06,2.00, -0.65, -25.26, 2.44, 1.77, 8.36, repro,
2009-02-07,2.68, -2.10, -29.54, 2.39, 1.73, 8.02, repro,
2009-02-08,-1.23, -0.15, -6.57, 2.26, 1.64, 7.57, repro,
2009-02-09,0.33, -0.93, -9.14, 2.33, 1.76, 8.05, repro,
2009-02-10,1.07, -1.66, -15.18, 2.29, 1.71, 7.82, repro,
2009-02-11,1.64, -3.55, -29.72, 2.48, 1.87, 8.43, repro,
2009-02-12,-0.59, -2.96, -20.64, 2.33, 1.68, 7.73, repro,
2009-02-13,-1.24, -1.93, -10.08, 2.28, 1.66, 7.66, repro,
2009-02-14,-0.25, -1.61, -12.57, 2.30, 1.69, 7.68, repro,
2009-02-15,0.88, 0.28, -20.25, 2.38, 1.73, 7.95, repro,
2009-02-16,-0.33, 0.25, -16.43, 2.32, 1.70, 7.81, repro,
2009-02-17,0.72, 0.81, -7.21, 2.33, 1.66, 7.59, repro,
2009-02-18,0.35, -3.27, -20.33, 2.31, 1.76, 7.88, repro,
2009-02-19,-4.13, -4.69, -26.64, 2.42, 1.82, 8.43, repro,
2009-02-20,1.05, -3.56, -15.60, 2.41, 1.75, 8.06, repro,
2009-02-21,1.94, -1.91, -18.26, 2.24, 1.63, 7.55, repro,
2009-02-22,6.43, -2.04, -24.46, 2.39, 1.79, 8.09, repro,
2009-02-23,0.96, -2.14, -13.11, 2.47, 1.78, 8.29, repro,
2009-02-24,4.38, -1.53, -16.25, 2.34, 1.75, 7.96, repro,
2009-02-25,0.88, -2.71, -10.58, 176.35, 162.94, 317.20, repro,
2009-02-26,2.41, -0.56, -8.88, 2.31, 1.71, 7.86, repro,
2009-02-27,5.33, -2.70, -23.51, 2.34, 1.75, 8.10, repro,
2009-02-28,3.27, -2.06, -10.57, 2.38, 1.75, 8.13, repro,
2009-03-01,5.54, -1.70, -15.73, 2.81, 2.17, 9.80, repro,
2009-03-02,3.68, -4.34, -16.38, 2.33, 1.69, 7.84, repro,
2009-03-03,3.63, -2.84, -14.77, 2.52, 1.89, 8.63, repro,
2009-03-04,2.74, -3.12, -10.94, 2.37, 1.79, 8.18, repro,
2009-03-05,4.31, -2.86, -24.94, 2.33, 1.70, 7.74, repro,
2009-03-06,4.20, -3.88, -12.63, 2.49, 1.94, 8.85, repro,
2009-03-07,3.49, -5.44, -18.09, 2.27, 1.67, 7.55, repro,
2009-03-08,3.96, -4.56, -14.54, 2.21, 1.65, 7.47, repro,
2009-03-09,4.87, -2.23, -25.72, 2.33, 1.74, 7.83, repro,
2009-03-10,4.59, -6.35, -19.19, 2.39, 1.81, 8.34, repro,
2009-03-11,7.42, -10.06, -17.29, 2.40, 1.75, 8.06, repro,
2009-03-12,6.46, -1.93, -24.30, 2.33, 1.76, 8.00, repro,
2009-03-13,4.48, -2.64, -17.90, 2.34, 1.82, 8.21, repro,
2009-03-14,6.07, -2.45, -12.90, 2.37, 1.77, 8.04, repro,
2009-03-15,5.46, -1.60, -3.87, 2.27, 1.72, 7.75, repro,
2009-03-16,6.43, -1.83, -21.35, 2.46, 1.82, 8.22, repro,
2009-03-17,5.22, -4.91, -9.95, 2.28, 1.70, 7.80, repro,
2009-03-18,3.88, -6.43, -23.85, 2.33, 1.78, 8.05, repro,
2009-03-19,7.13, -1.07, -23.01, 2.44, 1.80, 8.42, repro,
2009-03-20,6.98, -3.30, -23.83, 2.30, 1.74, 7.97, repro,
2009-03-21,4.72, -6.40, -11.33, 2.26, 1.65, 7.49, repro,
2009-03-22,4.10, -5.32, -8.67, 2.26, 1.65, 7.46, repro,
2009-03-23,2.71, -12.06, -13.70, 2.32, 1.70, 7.78, repro,
2009-03-24,5.10, -16.25, -28.99, 2.34, 1.76, 8.07, repro,
2009-03-25,-10.86, -35.29, -10.84, 2.46, 1.72, 8.55, repro,
2009-03-26,8.57, -21.75, -19.43, 2.43, 1.85, 8.41, repro,
2009-03-27,31.11, -22.60, -18.95, 2.49, 1.84, 8.84, repro,
2009-03-28,9.29, -3.91, -33.17, 2.52, 1.86, 8.56, repro,
2009-03-29,8.08, -4.19, -14.58, 2.43, 1.80, 8.43, repro,
2009-03-30,6.60, -7.06, -23.92, 2.37, 1.75, 8.21, repro,
2009-03-31,9.06, -4.12, -25.30, 2.58, 1.88, 8.88, repro,
2009-04-01,13.17, -5.58, -28.73, 2.54, 1.86, 8.52, repro,
2009-04-02,9.29, 3.02, -0.05, 2.39, 1.77, 8.26, repro,
2009-04-03,8.53, 1.61, 19.78, 2.51, 1.85, 8.64, repro,
2009-04-04,10.46, 2.25, 1.52, 2.36, 1.73, 8.06, repro,
2009-04-05,-3.21, -11.64, -30.85, 2.85, 2.14, 9.94, repro,
2009-04-06,12.40, -3.64, -24.25, 2.42, 1.75, 8.09, repro,
2009-04-07,13.18, -5.41, -15.33, 2.44, 1.77, 8.18, repro,
2009-04-08,8.72, -4.65, -22.10, 2.43, 1.73, 8.09, repro,
2009-04-09,11.97, -6.97, -31.80, 2.57, 1.78, 8.59, repro,
2009-04-10,11.42, -5.56, -13.15, 2.34, 1.65, 7.76, repro,
2009-04-11,17.80, -10.83, -24.13, 2.38, 1.72, 8.04, repro,
2009-04-12,13.77, -7.59, -29.37, 2.50, 1.75, 8.13, repro,
2009-04-13,12.48, -7.17, -33.31, 2.34, 1.69, 7.91, repro,
2009-04-14,14.74, -7.18, -34.22, 2.54, 1.83, 8.46, repro,
2009-04-15,14.53, -7.01, -17.54, 2.50, 1.76, 8.27, repro,
2009-04-16,5.87, -23.09, -43.65, 2.69, 1.89, 9.12, repro,
2009-04-17,15.77, -8.20, -26.29, 2.33, 1.66, 7.82, repro,
2009-04-18,15.33, -5.64, -27.54, 2.41, 1.72, 8.11, repro,
2009-04-19,14.07, -6.38, -18.22, 2.50, 1.89, 8.79, repro,
2009-04-20,12.32, -6.40, -19.00, 2.49, 1.80, 8.53, repro,
2009-04-21,12.27, -7.10, -23.56, 2.38, 1.70, 7.88, repro,
2009-04-22,9.89, -5.60, -9.51, 2.68, 1.85, 9.12, repro,
2009-04-23,10.85, -6.48, -9.24, 2.44, 1.69, 7.91, repro,
2009-04-24,8.53, -7.14, -11.58, 2.45, 1.68, 7.82, repro,
2009-04-25,12.41, -5.13, -16.37, 2.37, 1.70, 7.86, repro,
2009-04-26,11.94, -5.22, -21.79, 2.31, 1.65, 7.57, repro,
2009-04-27,10.83, -4.76, -15.37, 2.38, 1.73, 7.97, repro,
2009-04-28,10.04, -8.68, -17.50, 2.31, 1.64, 7.59, repro,
2009-04-29,14.41, -12.40, -39.38, 2.47, 1.77, 8.27, repro,
2009-04-30,11.05, -10.02, -14.54, 2.52, 1.85, 8.79, repro,
2009-05-01,11.43, -5.11, -20.49, 2.37, 1.68, 8.02, repro,
2009-05-02,10.71, -5.64, -29.19, 2.48, 1.70, 8.07, repro,
2009-05-03,13.93, -8.17, -11.74, 2.47, 1.82, 8.51, repro,
2009-05-04,-5.10, -15.63, 60.70, 2.43, 1.69, 8.02, repro,
2009-05-05,9.65, -4.97, -10.20, 2.54, 1.77, 8.49, repro,
2009-05-06,19.70, -2.41, -17.56, 2.82, 2.08, 10.73, repro,
2009-05-07,3.50, -3.20, -27.47, 2.60, 1.85, 8.77, repro,
2009-05-08,0.59, -10.15, -36.12, 2.55, 1.80, 8.55, repro,
2009-05-09,11.67, -2.99, -27.17, 2.30, 1.64, 7.66, repro,
2009-05-10,12.32, -4.25, -26.95, 2.42, 1.70, 7.94, repro,
2009-05-11,12.54, -3.78, -28.89, 2.50, 1.74, 8.17, repro,
2009-05-12,11.17, -4.24, -22.64, 2.47, 1.73, 7.96, repro,
2009-05-13,12.37, -4.41, -30.30, 2.36, 1.79, 8.19, repro,
2009-05-14,10.20, -4.93, -15.54, 2.45, 1.74, 8.08, repro,
2009-05-15,10.27, -4.54, -13.07, 2.42, 1.67, 7.84, repro,
2009-05-16,10.99, -5.23, -18.54, 2.42, 1.68, 7.98, repro,
2009-05-17,11.32, -3.91, -29.36, 2.30, 1.60, 7.50, repro,
2009-05-18,11.75, -3.03, -24.26, 2.35, 1.67, 7.81, repro,
2009-05-19,10.57, -6.28, -30.62, 2.39, 1.73, 8.17, repro,
2009-05-20,9.67, -3.94, -23.97, 2.43, 1.75, 8.03, repro,
2009-05-21,7.38, -3.11, -14.62, 2.35, 1.67, 7.82, repro,
2009-05-22,7.74, -1.79, -19.03, 2.32, 1.65, 7.72, repro,
2009-05-23,3.32, -1.85, -24.48, 2.41, 1.65, 7.86, repro,
2009-05-24,0.26, -0.88, -15.84, 2.37, 1.64, 7.77, repro,
2009-05-25,1.82, 0.05, -23.60, 2.38, 1.65, 7.80, repro,
2009-05-26,0.13, 2.81, -20.87, 2.33, 1.66, 7.87, repro,
2009-05-27,-3.99, 4.57, -18.09, 2.40, 1.68, 7.79, repro,
2009-05-28,-3.97, 3.84, -9.14, 2.30, 1.60, 7.56, repro,
2009-05-29,-6.49, 2.96, -9.58, 2.95, 1.97, 9.46, repro,
2009-05-30,-6.04, 5.83, -20.36, 2.37, 1.66, 7.82, repro,
2009-05-31,-2.49, 4.29, -11.74, 2.26, 1.60, 7.61, repro,
2009-06-01,-3.80, 3.52, -20.45, 2.34, 1.68, 7.80, repro,
2009-06-02,-4.83, 2.65, -20.14, 2.42, 1.69, 7.89, repro,
2009-06-03,-6.98, 5.57, -20.51, 2.83, 1.95, 9.26, repro,
2009-06-04,-3.12, 4.08, -22.15, 2.37, 1.68, 7.93, repro,
2009-06-05,-4.43, 4.56, -22.92, 2.27, 1.60, 7.56, repro,
2009-06-06,-5.92, 4.14, -16.96, 2.50, 1.79, 8.40, repro,
2009-06-07,-4.43, 2.90, -18.46, 2.31, 1.66, 7.73, repro,
2009-06-08,-2.26, 2.54, -14.78, 2.49, 1.76, 8.08, repro,
2009-06-09,-4.00, 3.51, -2.25, 2.38, 1.63, 7.69, repro,
2009-06-10,-5.74, 3.58, -21.88, 2.45, 1.70, 7.95, repro,
2009-06-11,-4.78, 6.30, -14.82, 2.47, 1.74, 8.27, repro,
2009-06-12,-4.72, 4.92, -14.87, 2.29, 1.64, 7.70, repro,
2009-06-13,-5.67, 5.28, -18.20, 2.31, 1.63, 7.69, repro,
2009-06-14,-3.53, 3.12, -22.01, 2.42, 1.68, 7.89, repro,
2009-06-15,-5.89, 3.43, -20.95, 2.32, 1.67, 7.81, repro,
2009-06-16,-5.11, 2.82, -11.96, 2.28, 1.60, 7.49, repro,
2009-06-17,-5.99, 3.33, -12.57, 2.28, 1.61, 7.60, repro,
2009-06-18,-3.14, 2.54, -22.53, 2.36, 1.71, 8.06, repro,
2009-06-19,-5.23, 3.61, -12.38, 2.41, 1.73, 8.08, repro,
2009-06-20,-5.35, 2.16, -9.43, 2.37, 1.71, 7.91, repro,
2009-06-21,-6.04, 3.98, -4.06, 2.44, 1.77, 8.30, repro,
2009-06-22,-15.65, -1.36, -2.00, 2.52, 1.78, 8.56, repro,
2009-06-23,-6.91, 2.81, -2.51, 2.42, 1.69, 8.06, repro,
2009-06-24,-3.58, 3.28, -12.80, 2.41, 1.71, 8.01, repro,
2009-06-25,-5.53, 3.32, -10.15, 2.41, 1.67, 7.83, repro,
2009-06-26,-4.63, 1.91, -10.23, 2.32, 1.66, 7.70, repro,
2009-06-27,-4.65, 3.37, -17.66, 2.43, 1.74, 8.08, repro,
2009-06-28,-7.39, 2.50, -2.75, 2.28, 1.63, 7.66, repro,
2009-06-29,-4.38, 3.30, -19.48, 2.46, 1.77, 8.35, repro,
2009-06-30,-3.95, 4.16, -17.76, 2.46, 1.79, 8.29, repro,
2009-07-01,-4.03, 3.96, -12.10, 2.38, 1.72, 7.84, repro,
2009-07-02,-4.66, 3.09, -10.97, 2.29, 1.65, 7.68, repro,
2009-07-03,-4.42, 3.46, -15.23, 2.26, 1.60, 7.59, repro,
2009-07-04,-5.18, 2.90, -11.09, 2.38, 1.66, 7.87, repro,
2009-07-05,-6.82, 3.89, -1.98, 2.44, 1.74, 8.05, repro,
2009-07-06,-6.01, 4.27, -4.25, 2.32, 1.67, 7.67, repro,
2009-07-07,-3.73, 5.86, -9.36, 2.34, 1.67, 7.78, repro,
2009-07-08,-7.24, 4.08, -6.78, 2.31, 1.69, 7.78, repro,
2009-07-09,-6.23, 3.29, -22.20, 2.35, 1.69, 7.87, repro,
2009-07-10,-5.23, 2.58, -15.75, 2.33, 1.66, 7.80, repro,
2009-07-11,-6.26, 4.29, -9.58, 2.30, 1.65, 7.70, repro,
2009-07-12,-5.38, 4.65, -9.39, 2.31, 1.63, 7.61, repro,
2009-07-13,-6.40, 6.24, -14.36, 2.28, 1.62, 7.68, repro,
2009-07-14,-3.61, 4.25, -19.25, 2.40, 1.74, 8.01, repro,
2009-07-15,-5.67, 2.39, -3.67, 2.36, 1.68, 7.85, repro,
2009-07-16,-9.08, 2.73, -7.56, 2.37, 1.71, 7.97, repro,
2009-07-17,-6.21, 2.06, -9.51, 2.38, 1.78, 8.26, repro,
2009-07-18,-5.49, 3.23, -9.50, 2.34, 1.70, 8.01, repro,
2009-07-19,-5.59, 5.12, -10.05, 2.42, 1.71, 7.96, repro,
2009-07-20,-6.49, 3.11, 0.32, 2.33, 1.65, 7.74, repro,
2009-07-21,-7.07, 2.89, -1.83, 2.31, 1.64, 7.64, repro,
2009-07-22,-5.25, 2.77, -11.30, 2.33, 1.68, 7.95, repro,
2009-07-23,-7.78, 2.41, -2.02, 2.42, 1.68, 7.86, repro,
2009-07-24,-6.82, 4.11, 5.27, 2.41, 1.74, 8.20, repro,
2009-07-25,-6.94, 3.20, -8.66, 2.34, 1.65, 7.86, repro,
2009-07-26,-5.29, 4.10, -15.10, 2.63, 1.86, 8.67, repro,
2009-07-27,-5.77, 4.42, -16.02, 2.25, 1.63, 7.61, repro,
2009-07-28,-5.99, 1.91, -2.02, 2.32, 1.63, 7.77, repro,
2009-07-29,-4.45, 2.15, -8.88, 2.29, 1.62, 7.68, repro,
2009-07-30,-7.59, 1.84, -4.60, 2.42, 1.69, 8.33, repro,
2009-07-31,-6.54, 2.11, -9.11, 2.31, 1.65, 7.74, repro,
2009-08-01,-5.28, 1.62, 5.24, 2.32, 1.67, 7.85, repro,
2009-08-02,-5.75, 2.58, -8.64, 2.36, 1.70, 8.07, repro,
2009-08-03,-4.78, 3.18, -4.26, 2.29, 1.62, 7.67, repro,
2009-08-04,-8.10, 1.47, -2.19, 2.29, 1.68, 7.86, repro,
2009-08-05,-7.27, 1.93, -6.84, 2.43, 1.72, 7.98, repro,
2009-08-06,-7.93, 3.32, -4.10, 2.24, 1.61, 7.50, repro,
2009-08-07,-6.75, 3.60, -10.14, 2.52, 1.85, 8.70, repro,
2009-08-08,-7.41, 2.53, -2.71, 2.28, 1.65, 7.72, repro,
2009-08-09,-7.90, 1.94, -8.93, 2.39, 1.71, 8.13, repro,
2009-08-10,-5.12, 2.84, -10.38, 2.54, 1.94, 8.91, repro,
2009-08-11,-8.88, 3.78, -5.54, 2.44, 1.72, 8.23, repro,
2009-08-12,-7.58, 3.70, 4.35, 2.31, 1.68, 7.84, repro,
2009-08-13,-7.08, 3.85, -1.37, 2.39, 1.70, 8.01, repro,
2009-08-14,-6.16, 4.23, -5.42, 2.42, 1.69, 7.90, repro,
2009-08-15,-4.40, 3.92, -12.75, 2.37, 1.67, 7.88, repro,
2009-08-16,-4.05, 5.06, -6.84, 2.37, 1.68, 7.96, repro,
2009-08-17,-7.69, 4.12, 0.34, 2.37, 1.70, 8.05, repro,
2009-08-18,-4.54, 3.95, -1.40, 2.59, 1.95, 9.07, repro,
2009-08-19,-3.41, 3.27, -4.97, 2.45, 1.75, 8.15, repro,
2009-08-20,-6.06, 3.05, 0.09, 2.35, 1.65, 7.83, repro,
2009-08-21,-5.36, 4.07, -10.67, 2.38, 1.72, 8.13, repro,
2009-08-22,-9.57, 4.86, 0.40, 2.43, 1.71, 7.99, repro,
2009-08-23,-7.64, 4.85, -2.82, 2.34, 1.69, 7.89, repro,
2009-08-24,-5.36, 2.34, -0.45, 2.53, 1.92, 8.86, repro,
2009-08-25,-4.74, 4.71, -4.66, 2.34, 1.69, 7.91, repro,
2009-08-26,-4.54, 3.74, -8.35, 2.36, 1.69, 7.90, repro,
2009-08-27,-8.40, 3.13, -2.92, 2.34, 1.67, 7.86, repro,
2009-08-28,-8.65, 4.17, -9.37, 2.34, 1.69, 8.04, repro,
2009-08-29,-5.97, 4.79, -4.95, 2.31, 1.66, 7.79, repro,
2009-08-30,-7.10, 3.30, -4.45, 2.34, 1.71, 7.88, repro,
2009-08-31,-7.19, 4.69, -5.87, 2.31, 1.70, 7.86, repro,
2009-09-01,-8.43, 3.54, -3.25, 2.38, 1.72, 8.06, repro,
2009-09-02,-8.21, 1.42, -0.80, 2.38, 1.77, 8.48, repro,
2009-09-03,-9.37, 3.38, 1.60, 2.40, 1.68, 7.85, repro,
2009-09-04,-7.09, 3.39, -5.09, 2.32, 1.69, 7.89, repro,
2009-09-05,-6.33, 3.55, -8.14, 2.35, 1.71, 8.02, repro,
2009-09-06,-8.99, 6.14, -3.44, 2.48, 1.76, 8.35, repro,
2009-09-07,-5.87, 6.12, -10.03, 2.32, 1.66, 7.95, repro,
2009-09-08,-5.86, 4.69, -6.30, 2.28, 1.63, 7.79, repro,
2009-09-09,-7.68, 3.93, -11.20, 2.35, 1.70, 8.24, repro,
2009-09-10,-8.38, 2.91, -0.98, 2.35, 1.72, 8.12, repro,
2009-09-11,-6.33, 3.86, -4.89, 2.28, 1.63, 7.81, repro,
2009-09-12,-8.39, 3.29, -2.47, 2.30, 1.66, 7.77, repro,
2009-09-13,-9.45, 3.70, 5.75, 2.30, 1.68, 7.92, repro,
2009-09-14,-8.77, 2.74, 6.64, 2.32, 1.69, 7.99, repro,
2009-09-15,-9.07, 4.43, -5.57, 2.33, 1.68, 7.98, repro,
2009-09-16,-6.43, 4.13, -7.65, 2.36, 1.69, 8.03, repro,
2009-09-17,-7.37, 4.27, -5.63, 2.48, 1.79, 8.59, repro,
2009-09-18,-7.40, 2.97, 0.49, 2.33, 1.70, 8.10, repro,
2009-09-19,-8.78, 6.03, -0.69, 2.33, 1.71, 8.07, repro,
2009-09-20,-8.07, 5.03, -6.43, 2.34, 1.67, 7.90, repro,
2009-09-21,-8.09, 4.63, -3.61, 2.38, 1.74, 8.08, repro,
2009-09-22,-7.33, 2.42, -4.98, 2.40, 1.73, 8.27, repro,
2009-09-23,-6.61, 2.21, -4.08, 2.38, 1.78, 8.38, repro,
2009-09-24,-9.83, 2.64, 3.58, 2.34, 1.68, 7.96, repro,
2009-09-25,-5.88, 5.13, -1.99, 2.39, 1.75, 8.20, repro,
2009-09-26,-6.41, 4.56, 2.64, 2.36, 1.73, 7.99, repro,
2009-09-27,-8.40, 3.38, 7.15, 2.37, 1.71, 8.03, repro,
2009-09-28,-8.83, 4.08, 8.22, 2.36, 1.65, 7.82, repro,
2009-09-29,-8.69, 4.68, -4.73, 2.43, 1.77, 8.30, repro,
2009-09-30,-9.72, 5.01, 15.36, 2.37, 1.73, 8.07, repro,
2009-10-01,-9.60, -0.79, 24.07, 2.48, 1.77, 8.49, repro,
2009-10-02,-12.41, 1.36, 1.02, 2.44, 1.75, 8.42, repro,
2009-10-03,-7.94, 4.90, 0.94, 2.29, 1.68, 7.89, repro,
2009-10-04,-3.49, 6.88, 2.29, 2.37, 1.73, 8.18, repro,
2009-10-05,-11.44, -2.60, 13.89, 2.37, 1.71, 8.19, repro,
2009-10-06,-18.02, -0.55, 5.81, 2.41, 1.76, 8.20, repro,
2009-10-07,-7.04, 5.58, -1.81, 2.34, 1.72, 7.99, repro,
2009-10-08,-8.42, 4.54, -2.64, 2.43, 1.75, 8.19, repro,
2009-10-09,-8.53, 5.37, -7.91, 2.35, 1.70, 8.17, repro,
2009-10-10,-6.69, 5.38, -9.15, 2.31, 1.69, 7.94, repro,
2009-10-11,-8.86, 6.80, -0.02, 2.31, 1.67, 7.89, repro,
2009-10-12,-8.49, 5.84, 1.96, 2.33, 1.69, 8.05, repro,
2009-10-13,-8.68, 4.23, 8.91, 2.35, 1.68, 7.92, repro,
2009-10-14,-9.14, 3.53, 8.59, 2.57, 1.76, 8.29, repro,
2009-10-15,-6.39, 3.60, -2.81, 2.72, 2.10, 9.99, repro,
2009-10-16,-7.17, 4.51, -3.46, 2.48, 1.95, 9.00, repro,
2009-10-17,-8.63, 4.32, -7.36, 2.32, 1.72, 7.93, repro,
2009-10-18,-13.04, 4.87, -15.49, 9.77, 8.04, 33.89, repro,
2009-10-19,-10.93, 5.11, -2.23, 2.37, 1.76, 8.06, repro,
2009-10-20,-8.60, 4.69, -6.24, 2.38, 1.76, 8.12, repro,
2009-10-21,-8.97, 4.77, 7.81, 2.34, 1.76, 8.30, repro,
2009-10-22,-7.58, 4.51, -4.89, 2.42, 1.80, 8.16, repro,
2009-10-23,-8.85, 5.38, -7.30, 2.31, 1.71, 7.86, repro,
2009-10-24,-9.19, 4.59, -2.57, 2.35, 1.72, 7.89, repro,
2009-10-25,-8.63, 5.08, -2.26, 2.45, 1.79, 8.13, repro,
2009-10-26,-10.88, 4.68, -0.51, 2.43, 1.82, 8.36, repro,
2009-10-27,-12.29, -4.25, -5.15, 2.38, 1.78, 8.27, repro,
2009-10-28,-7.17, 0.45, -26.42, 2.33, 1.74, 8.10, repro,
2009-10-29,-16.32, -0.69, 2.06, 2.61, 1.86, 8.72, repro,
2009-10-30,-8.53, 4.70, -5.73, 2.48, 1.79, 8.46, repro,
2009-10-31,-12.17, 5.96, 6.31, 2.36, 1.72, 8.04, repro,
2009-11-01,-9.50, 5.29, -5.20, 2.36, 1.74, 8.12, repro,
2009-11-02,-8.31, 5.60, -2.02, 2.45, 1.78, 8.24, repro,
2009-11-03,-7.21, 6.27, -12.38, 2.34, 1.73, 8.08, repro,
2009-11-04,-9.77, 6.13, -3.42, 2.43, 1.76, 8.06, repro,
2009-11-05,-9.27, 5.06, 6.27, 2.33, 1.74, 7.98, repro,
2009-11-06,-10.19, 5.82, 4.77, 2.45, 1.79, 8.17, repro,
2009-11-07,-11.18, 2.29, 2.28, 2.45, 1.80, 8.27, repro,
2009-11-08,-12.45, 1.02, 4.32, 2.65, 1.92, 8.79, repro,
2009-11-09,-11.09, -1.73, 2.79, 2.41, 1.78, 8.05, repro,
2009-11-10,-9.21, 0.29, -13.15, 2.55, 1.88, 8.62, repro,
2009-11-11,-8.99, 1.63, -5.81, 2.52, 1.85, 8.37, repro,
2009-11-12,-9.25, 4.21, -0.08, 2.48, 1.93, 8.87, repro,
2009-11-13,-11.82, 4.03, -4.41, 2.51, 1.82, 8.51, repro,
2009-11-14,-6.58, -0.46, -9.22, 2.49, 1.79, 8.35, repro,
2009-11-15,-19.05, -6.66, -11.10, 2.43, 1.79, 8.21, repro,
2009-11-16,-30.35, -7.48, 0.91, 2.37, 1.78, 8.11, repro,
2009-11-17,-17.79, -0.71, 0.55, 2.49, 1.79, 8.20, repro,
2009-11-18,-17.50, -0.99, 0.24, 2.42, 1.78, 8.27, repro,
2009-11-19,-14.17, -1.25, -12.06, 2.50, 2.00, 9.23, repro,
2009-11-20,-12.38, -1.77, -9.70, 2.73, 2.15, 9.77, repro,
2009-11-21,-11.50, 3.18, -4.26, 2.33, 1.71, 7.85, repro,
2009-11-22,-14.94, 2.53, -0.98, 2.44, 1.76, 8.38, repro,
2009-11-23,-10.21, 0.52, -9.42, 2.37, 1.71, 7.90, repro,
2009-11-24,-9.68, 4.92, -3.72, 2.40, 1.72, 7.95, repro,
2009-11-25,-7.41, 6.57, -13.00, 2.38, 1.76, 7.99, repro,
2009-11-26,-9.96, 7.08, -10.70, 2.44, 1.81, 8.12, repro,
2009-11-27,-8.45, 6.82, -24.16, 2.32, 1.67, 7.78, repro,
2009-11-28,-0.91, 5.04, -25.09, 2.54, 1.92, 8.83, repro,
2009-11-29,-9.64, 4.79, -5.28, 2.38, 1.73, 8.02, repro,
2009-11-30,-8.39, 8.01, -12.51, 2.42, 1.77, 8.19, repro,
2009-12-01,-8.25, 7.81, -6.21, 2.44, 1.76, 8.25, repro,
2009-12-02,-9.18, 6.40, -8.06, 2.34, 1.67, 7.74, repro,
2009-12-03,-8.09, 7.24, -7.63, 2.45, 1.73, 7.94, repro,
2009-12-04,-7.83, 6.15, -13.18, 2.32, 1.73, 7.96, repro,
2009-12-05,-6.13, 7.98, -14.12, 2.30, 1.71, 7.83, repro,
2009-12-06,-9.25, 7.34, 2.79, 2.23, 1.62, 7.49, repro,
2009-12-07,-6.58, 8.87, -5.39, 2.28, 1.61, 7.51, repro,
2009-12-08,-8.53, 7.80, -2.97, 2.24, 1.61, 7.35, repro,
2009-12-09,-9.89, 7.72, -0.06, 2.36, 1.75, 8.08, repro,
2009-12-10,-8.31, 6.72, -3.07, 2.29, 1.68, 7.65, repro,
2009-12-11,-8.52, 8.39, -6.01, 2.25, 1.69, 7.70, repro,
2009-12-12,-10.99, 6.86, 2.08, 2.41, 1.78, 8.26, repro,
2009-12-13,-10.19, 6.86, -3.33, 2.26, 1.63, 7.48, repro,
2009-12-14,-10.67, 6.83, -7.16, 2.29, 1.65, 7.54, repro,
2009-12-15,-14.80, 5.88, -9.46, 2.38, 1.75, 8.15, repro,
2009-12-16,-14.33, 9.03, -18.61, 2.42, 1.75, 8.06, repro,
2009-12-17,-8.24, 11.03, -20.58, 2.47, 1.79, 8.26, repro,
2009-12-18,-8.70, 11.36, -13.09, 2.51, 1.78, 8.60, repro,